Other Surface Observations
Issued by NWS

Home | Current Version | Previous Version | Text Only | Print | Product List | Glossary On
Versions: 1 2 3 4 5 6 7 8 9 10 11 12 13 14 15 16 17 18 19 20 21 22 23 24 25 26 27 28 29 30 31 32 33 34 35 36 37 38 39 40 41 42 43 44 45 46 47 48 49 50
000
SXUS52 KTAE 211818
OSOTAE
OSOTAE
North Florida/South Alabama/Southwest Georgia Weather Roundup
National Weather Service Tallahassee Florida
100 PM EST SAT JAN 21 2017

Note: "fair" indicates few or no clouds below 12,000 feet with no
significant weather and/or obstructions to visibility.

!FLZ017-115-028-034-025-211900
...North Florida...

CITY           SKY/WX    TMP DP  RH WIND       PRES   REMARKS
TALLAHASSEE    CLOUDY    77  69  76 SW21G30   29.76F
APALACHICOLA   CLOUDY    74  71  91 S14G23    29.78F
PERRY          PTSUNNY   78  66  66 S14G26    29.81F
CROSS CITY     CLOUDY    79  59  50 SW16G22   29.84F
JACKSONVILLE   PTSUNNY   82  63  52 S18G28    29.81F
$$

!FLZ112-006-005-002-011-211900
...Florida Panhandle...

CITY           SKY/WX    TMP DP  RH WIND       PRES   REMARKS
MARIANNA       RAIN      62  61  96 W7        29.76R FOG
BONIFAY        TSTM      61  61 100 CALM      29.76F FOG
PANAMA CITY NW LGT RAIN  66  60  81 NW30G38   29.73F
TYNDALL AFB    PTSUNNY   73  70  88 S13       29.73F
TYND DRONE APT MOCLDY    75  70  83 S18G26    29.74F
DE FUNIAK SPR  TSTM      59  59 100 SE6       29.74F
EGLIN AFB      TSTM      60  60  97 SE13      29.71F FOG
DESTIN         LGT RAIN  63  32  31 E9        29.73F
HURLBURT       LGT RAIN  61  54  77 SE9       29.71F
CRESTVIEW      LGT RAIN  61  60  97 CALM      29.72F
PENSACOLA      CLOUDY    66  61  84 E6        29.72F
$$

!ALZ063-066-211900
...South Alabama...

CITY           SKY/WX    TMP DP  RH WIND       PRES   REMARKS
DOTHAN         TSTM      61  61 100 CALM      29.79F FOG
OZARK CAIRNS   LGT RAIN  61  61 100 CALM      29.71F FOG
FT RUCKER HELI CLOUDY    61  60  97 SE3       29.74F
RUCKER HELI 3  NOT AVBL
RUCKER HELI 2  TSTM      61  60  97 E6          N/A  FOG
FLORALA APT    CLOUDY    60  59  96 S8        29.72F THUNDER
ANDALUSIA      CLOUDY    63  60  90 SE6       29.68F
TROY           CLOUDY    61  61 100 SE8G20    29.69F
EUFALA         TSTM      61  59  93 S6        29.73F FOG
MOBILE         PTSUNNY   73  61  65 W5        29.72F
$$

!GAZ120>161-211900
...Southwest and South Central Georgia...

CITY           SKY/WX    TMP DP  RH WIND       PRES   REMARKS
THOMASVILLE    CLOUDY    77  72  83 SW18G24   29.77F
BAINBRIDGE     CLOUDY    77  66  69 NW14G24   29.78R
MOODY AFB      CLOUDY    77  66  69 S17G28    29.75F
VALDOSTA       LGT RAIN  75  67  76 S14G23    29.76F
MOULTRIE       CLOUDY    75  68  78 S12G23    29.76F
BLAKELY        DRIZZLE   63  61  94 CALM      29.76F
ALBANY         TSTM      62  60  93 W8G25     29.84R VSB 1
TIFTON         LGT RAIN  74  67  80 S17G24    29.74F
FITZGERALD     MOCLDY    76  67  74 SW14G23   29.76F
CORDELE        HVY RAIN  64  61  90 NW5G35    29.77R
AMERICUS       RAIN      61  61 100 W5        29.71F
HOMERVILLE     PTSUNNY   79  68  69 S14G20    29.78F
$$

!GMZ750-755-770-775-211900
...Coastal and Buoy Obs...

STATION/POSITION TIME  TEMP    WIND        PRES    VSBY  WAVE
                       AIR SEA DIR/SP/G                  HT/PER
                 (UTC) (F)     (DEG/KT/KT) (MB)    (MI)  (FT/S)
KEATON BEACH     1800   69     160/ 19/ 24 1009.1F
CEDAR KEY        1800   69     190/ 18/ 21 1011.3F
C TOWER          1800   72     190/ 19/ 20 1008.5F
APALACHICOLA BUO 1750   76 73  190/ 17/ 23 1009.5F         5/ 5
PANAMA CITY BUOY 1750   77 75              1007.9F         8/ 6
MOBILE BUOY      NOT AVBL
ORANGE BCH AL BU 1750   64 65   80/ 10/ 10 1006.3F         5/ 7
$$




USA.gov is the U.S. government's official web portal to all federal, state and local government web resources and services.